Regional Weather Roundup
Issued by NWS

Home | Current Version | Previous Version | Text Only | Print | Product List | Glossary On
Versions: 1 2 3 4 5 6 7 8 9 10 11 12 13 14 15 16 17 18 19 20 21 22 23 24 25 26 27 28 29 30 31 32 33 34 35 36 37 38 39 40 41 42 43 44 45 46 47 48 49 50
000
ASUS46 KLOX 260612
RWRCA

SOUTHERN CALIFORNIA WEATHER ROUNDUP
NATIONAL WEATHER SERVICE OXNARD CALIFORNIA
1000 PM PST SUN JAN 25 2015

NOTE: "FAIR" INDICATES FEW OR NO CLOUDS BELOW 12,000 FEET WITH NO
SIGNIFICANT WEATHER AND/OR OBSTRUCTIONS TO VISIBILITY.

  -  STATIONS PRECEEDED BY AN ASTERISK (*) ARE NOT NWS OR FAA
     STATIONS AND ARE NOT SUBJECT TO NWS AND FAA QUALITY CONTROL.

CAZ041-042-087-260700-
LA AND ORANGE COUNTY COASTAL AREAS


CITY           SKY/WX    TMP DP  RH WIND       PRES   REMARKS
L.A. DOWNTOWN  MOCLDY    64  32  30 CALM      30.03S
L.A. AIRPORT   MOCLDY    63  34  33 E3        30.04R
LONG BEACH     MOCLDY    65  37  35 CALM      30.04S

CITY           SKY/WX    TMP DP  RH WIND       PRES   REMARKS
AVALON           N/A     57 N/A N/A S3          N/A
FULLERTON      MOCLDY    65  33  30 CALM      30.03S
HAWTHORNE      MOCLDY    66  31  27 CALM      30.04R
*LEO CARRILLO    N/A     69  28  21 N9          N/A
*LOS ALAMITOS  MOCLDY    60  42  51 CALM      30.03S
*REDONDO BEACH   N/A     61  36  40 SW1       30.05R
SANTA ANA      MOCLDY    69  32  25 CALM      30.03S
STA MONICA APT MOCLDY    65  31  28 E5        30.04R
*STA MON PIER    N/A     68  36  31 N7        30.02S
*UCLA            N/A     68  27  21 N7        30.02R

$$

CAZ547-548-048-260700-
LA COUNTY VALLEYS AND INLAND EMPIRE


CITY           SKY/WX    TMP DP  RH WIND       PRES   REMARKS
BURBANK        MOCLDY    62  32  32 W3        30.05S
VAN NUYS       MOCLDY    60  36  40 CALM      30.06S

CITY           SKY/WX    TMP DP  RH WIND       PRES   REMARKS
CORONA AIRPORT CLOUDY    54  36  50 CALM      30.06F
CHINO          MOCLDY    59  36  42 SW3       30.07S
MARCH AFB      MOCLDY    48  35  60 NW3       30.07F
*NORTHRIDGE      N/A     61  32  33 CALM        N/A
ONTARIO        MOCLDY    63  32  31 NE8       30.05F
*PASADENA        N/A     64  34  32 CALM        N/A
RIVERSIDE      MOCLDY    59  34  39 S3        30.07R
SAN BERNARDINO NOT AVBL
*SAN RAFAEL HI   N/A     68  24  19 W8          N/A
*SAUGUS          N/A     68  28  22 SE2G17      N/A
*WHITEMAN AP   NOT AVBL
*WHITTIER HILL   N/A     67  29  24 NE6G21      N/A
*WOODLAND HILL   N/A     55  36  47 S2          N/A

$$

CAZ054-055-260700-
LA AND SAN BERNARDINO COUNTY MOUNTAINS


CITY           SKY/WX    TMP DP  RH WIND       PRES   REMARKS
*ACTON           N/A     65  27  24 N6          N/A
*BIG BEAR AIRP MOCLDY    46  14  27 NE9       30.27F
*BIG PINES       N/A     42  22  45 CALM        N/A
MT WILSON NWS    N/A     50  23  34 MISG        N/A
SANDBERG       PTCLDY    57  26  30 E14G21    30.19R

$$

CAZ028-029-059-060-099-260700-
ANTELOPE VALLEY AND SURROUNDING AREAS


CITY           SKY/WX    TMP DP  RH WIND       PRES   REMARKS
LANCASTER      PTCLDY    45  34  65 NW9       30.14R
PALMDALE       MOCLDY    51  32  48 NW3       30.14R
*POPPY PARK      N/A     47  34  61 W5          N/A

CITY           SKY/WX    TMP DP  RH WIND       PRES   REMARKS
29 PALMS       MOCLDY    54  29  38 CALM      30.20R
BARSTOW/DAGGET CLOUDY    53  30  41 SE6       30.13S
BISHOP         PTCLDY    45  18  34 N6        30.22S
CHINA LAKE     PTCLDY    53  33  46 SW12      30.14R
EDWARDS AFB    MOCLDY    50  33  51 NW6       30.12R
MOJAVE         FAIR      57  30  35 N3        30.15F
NEEDLES        CLEAR     64  31  28 NE6       30.09S
VICTORVILLE    CLOUDY    54  28  37 NE3       30.14S

$$

CAZ039-040-260700-
VENTURA AND SANTA BARBARA COUNTY COAST


CITY           SKY/WX    TMP DP  RH WIND       PRES   REMARKS
CAMARILLO      MOCLDY    60  39  45 E10       30.03S
NWS OXNARD       N/A     58  40  51 CALM      30.02S
OXNARD AIRPORT MOCLDY    60  43  53 NE6       30.02S
*POINT MUGU    MOCLDY    57  39  51 NE10      30.03F
SBA APT/GOLETA PTCLDY    54  42  64 N3        30.02S
*SANTA BARBARA   N/A     60  40  47 E1        30.10S
*VENTURA         N/A     62  35  37 NE5       30.08S

$$

CAZ044-045-260700-
VENTURA COUNTY VALLEYS


CITY           SKY/WX    TMP DP  RH WIND       PRES   REMARKS
*SIMI VALLEY     N/A     58  36  43 CALM      30.01F
*OJAI            N/A     49  40  73 CALM      30.01S
*FILLMORE        N/A     61  40  46 CALM      29.94S

$$

CAZ053-260700-
VENTURA COUNTY MOUNTAINS


CITY           SKY/WX    TMP DP  RH WIND       PRES   REMARKS
*LOCKWOOD VLY    N/A     50  25  37 MISG        N/A
*ROSE VALLEY     N/A     54  34  47 MISG        N/A

$$

CAZ034-035-036-260700-
CENTRAL COAST AND SANTA YNEZ VALLEY


CITY           SKY/WX    TMP DP  RH WIND       PRES   REMARKS
SAN LUIS OBISP MOCLDY    54  36  50 CALM      30.05S
SANTA MARIA    CLEAR     51  35  54 SE3       30.06R

CITY           SKY/WX    TMP DP  RH WIND       PRES   REMARKS
*CAL POLY SLO    N/A     54  37  54 CALM        N/A
*LOMPOC        PTCLDY    48  32  53 E7        30.05S
*PISMO BEACH     N/A     56  38  49 NE6       30.05S
*SANTA YNEZ    FAIR      50  37  62 E3        30.07S

$$

CAZ037-038-051-260700-
SAN LUIS OBISPO COUNTY INTERIOR AND CUYAMA VALLEY


CITY           SKY/WX    TMP DP  RH WIND       PRES   REMARKS
*CUYAMA          N/A     55  31  41 CALM      30.06S
PASO ROBLES    MOCLDY    51  36  56 CALM      30.08R

$$

CAZ032-033-061-260700-
SOUTHERN DESERTS


CITY           SKY/WX    TMP DP  RH WIND       PRES   REMARKS
BLYTHE         PTCLDY    59  33  37 CALM      30.07R
IMPERIAL       CLOUDY    56  31  38 SW5       30.04R
PALM SPRINGS   MOCLDY    65  31  28 NW6       30.08S
THERMAL        PTCLDY    52  34  50 NW5       30.04R

$$

ELSEWHERE ACROSS THE WESTERN UNITED STATES AND MEXICO


CITY           SKY/WX    TMP DP  RH WIND       PRES   REMARKS
DENVER, CO     CLEAR     41  26  55 SW9       30.21R
GRAND CANYON,  CLEAR     34  20  56 VRB5      30.36R WCI  30
HONOLULU, HI   MOCLDY    70  63  78 N15G22    30.02R
KAHULUI, MAUI  CLOUDY    66  66 100 NE10      30.04R
LAKE TAHOE, CA CLEAR     32  23  69 SW3       30.34R
LAS VEGAS, NV  MOCLDY    59  33  37 SW5       30.14R
MAMMOTH LAKES, FAIR      37  18  44 CALM      30.36R
MEXICO CITY, M CLOUDY    59  39  47 N7        30.39R
PHOENIX, AZ    MOCLDY    57  30  35 E3        30.09R
PORTLAND, OR   FOG       42  42 100 CALM      30.00F VSB 1/4
RENO, NV       CLEAR     43  28  55 W3        30.32S
SALT LAKE CITY CLEAR     35  30  82 E5        30.42R WCI  31
SAN DIEGO, CA  CLOUDY    68  35  29 SW8       30.02S
SAN FRANCISCO, CLEAR     54  45  71 CALM      30.04S
SAN JOSE, CA   PTCLDY    51  43  74 S6        30.05S
SEATTLE, WA    PTCLDY    48  46  93 NW3       30.00F
TIJUANA, MEX   MOCLDY    68  19  15 SE6       30.05R

$$

STATION/POSITION TIME  TEMP    WIND        PRES    VSBY  WAVE
                       AIR SEA DIR/SP/G                  HT/PER
                 (UTC) (F)     (DEG/KT/KT) (MB)    (MI)  (FT/S)
POINT ARGUELLO B NOT AVBL
WEST SANTA BARBA 0600   63 61  350/  6/  6 1016.0R         7/14
POINT CONCEPTION NOT AVBL
EAST SANTA BARBA NOT AVBL
SANTA MONICA BAY 0600   66 63  200/  4/  6 1017.4R         3/15


USA.gov is the U.S. government's official web portal to all federal, state and local government web resources and services.